College Park, MD

6:17 AM EST on December 11, 2019 (GMT -0500)
College Park

Weather History for KCGS - October, 2019

Change the Weather History Date:

Monday, October 7, 2019

  Actual Average Record
Temperature  
Mean Temperature 71 °F -  
Max Temperature 81 °F 70 °F 89 °F (2007)
Min Temperature 61 °F 48 °F 33 °F (1958)
Cooling Degree Days 6    
Growing Degree Days 21 (Base 50)    
Moisture  
Dew Point 56 °F    
Average Humidity 59    
Maximum Humidity 75    
Minimum Humidity 40    
Precipitation  
Precipitation 0.00 in - - ()
Sea Level Pressure  
Sea Level Pressure 30.13 in    
Wind  
Wind Speed 4 mph (South)    
Max Wind Speed 16 mph    
Max Gust Speed 25 mph    
Visibility 10 miles    
Events      
Averages and records for this station are not official NWS values.
T = Trace of Precipitation, MM = Missing Value Source: NWS Daily Summary

Daily Weather History Graph

Daily Weather History Graph

Search for Another Location

Airport or City:

Astronomy

Oct. 07, 2019 Rise Set
Actual Time 7:09 AM EDT 6:41 PM EDT
Civil Twilight 6:42 AM EDT 7:08 PM EDT
Nautical Twilight 6:11 AM EDT 7:38 PM EDT
Astronomical Twilight 5:40 AM EDT 8:09 PM EDT
Moon 3:58 PM EDT (10/7) 1:03 AM EDT (10/7)
Length of Visible Light 12h 25m
Length of Day
11h 32m
Waxing Gibbous, 69% of the Moon is Illuminated
Oct 7
Waxing Gibbous
Oct 13
Full
Oct 21
Last Quarter
Oct 27
New
Nov 4
First Quarter

Hourly Weather History & Observations

Time (EDT) Temp. Heat Index Dew Point Humidity Pressure Visibility Wind Dir Wind Speed Gust Speed Precip Events Conditions
12:03 AM 69.3 °F - 57.7 °F 67% 30.20 in 10.0 mi Calm Calm - N/A   Overcast
12:23 AM 69.1 °F - 58.1 °F 68% 30.20 in 10.0 mi Calm Calm - N/A   Overcast
12:43 AM 69.3 °F - 58.1 °F 68% 30.19 in 10.0 mi Calm Calm - N/A   Overcast
1:03 AM 69.8 °F - 58.3 °F 67% 30.19 in 10.0 mi SSE 4.6 mph - N/A   Overcast
1:23 AM 70.0 °F - 58.1 °F 66% 30.18 in 10.0 mi South 4.6 mph - N/A   Mostly Cloudy
1:43 AM 70.0 °F - 57.4 °F 64% 30.19 in 10.0 mi South 3.5 mph - N/A   Mostly Cloudy
2:03 AM 70.2 °F - 57.0 °F 63% 30.19 in 10.0 mi South 3.5 mph - N/A   Overcast
2:23 AM 70.0 °F - 56.5 °F 62% 30.18 in 10.0 mi South 4.6 mph - N/A   Overcast
2:43 AM 70.0 °F - 56.3 °F 62% 30.17 in 10.0 mi South 5.8 mph - N/A   Overcast
3:03 AM 70.0 °F - 56.3 °F 62% 30.17 in 10.0 mi South 4.6 mph - N/A   Overcast
3:23 AM 70.2 °F - 56.3 °F 61% 30.16 in 10.0 mi South 9.2 mph - N/A   Overcast
3:43 AM 70.0 °F - 55.9 °F 61% 30.16 in 10.0 mi South 5.8 mph - N/A   Overcast
4:03 AM 70.0 °F - 55.8 °F 61% 30.16 in 10.0 mi South 3.5 mph - N/A   Overcast
4:23 AM 70.0 °F - 55.8 °F 61% 30.16 in 10.0 mi South 6.9 mph - N/A   Overcast
4:43 AM 69.8 °F - 55.6 °F 61% 30.16 in 10.0 mi South 4.6 mph - N/A   Overcast
5:03 AM 69.8 °F - 55.8 °F 61% 30.16 in 10.0 mi South 5.8 mph - N/A   Overcast
5:23 AM 69.4 °F - 56.5 °F 63% 30.16 in 10.0 mi South 5.8 mph - N/A   Overcast
5:43 AM 69.3 °F - 56.8 °F 65% 30.16 in 10.0 mi South 5.8 mph - N/A   Overcast
6:03 AM 69.1 °F - 57.0 °F 65% 30.16 in 10.0 mi SSW 5.8 mph - N/A   Overcast
6:23 AM 68.9 °F - 56.7 °F 65% 30.16 in 10.0 mi South 4.6 mph - N/A   Overcast
6:43 AM 68.9 °F - 56.7 °F 65% 30.16 in 10.0 mi South 3.5 mph - N/A   Overcast
7:03 AM 68.9 °F - 56.7 °F 65% 30.16 in 10.0 mi South 6.9 mph - N/A   Overcast
7:23 AM 68.7 °F - 57.0 °F 66% 30.17 in 10.0 mi South 4.6 mph - N/A   Overcast
7:43 AM 68.5 °F - 57.2 °F 67% 30.17 in 10.0 mi South 5.8 mph - N/A   Overcast
8:03 AM 68.5 °F - 57.2 °F 67% 30.17 in 10.0 mi SSW 4.6 mph - N/A   Overcast
8:23 AM 68.5 °F - 57.4 °F 67% 30.17 in 10.0 mi South 4.6 mph - N/A   Overcast
8:43 AM 68.9 °F - 57.4 °F 67% 30.17 in 10.0 mi South 4.6 mph - N/A   Overcast
9:03 AM 69.1 °F - 57.6 °F 67% 30.17 in 10.0 mi South 4.6 mph - N/A   Mostly Cloudy
9:23 AM 71.4 °F - 58.1 °F 63% 30.17 in 10.0 mi South 5.8 mph - N/A   Overcast
9:43 AM 72.0 °F - 58.1 °F 62% 30.17 in 10.0 mi SSW 9.2 mph - N/A   Scattered Clouds
10:03 AM 72.1 °F - 58.1 °F 61% 30.17 in 10.0 mi South 9.2 mph 16.1 mph N/A   Clear
10:23 AM 73.0 °F - 58.1 °F 59% 30.16 in 10.0 mi South 6.9 mph 16.1 mph N/A   Clear
10:43 AM 73.8 °F - 58.1 °F 58% 30.16 in 10.0 mi South 8.1 mph - N/A   Clear
11:03 AM 74.3 °F - 58.3 °F 57% 30.15 in 10.0 mi SSW 8.1 mph - N/A   Scattered Clouds
11:23 AM 75.9 °F - 58.3 °F 54% 30.15 in 10.0 mi South 5.8 mph - N/A   Scattered Clouds
11:43 AM 76.1 °F - 58.1 °F 54% 30.14 in 10.0 mi SW 3.5 mph - N/A   Scattered Clouds
12:03 PM 75.6 °F - 57.4 °F 53% 30.13 in 10.0 mi SW 8.1 mph 18.4 mph N/A   Overcast
12:23 PM 76.1 °F - 57.2 °F 52% 30.13 in 10.0 mi SSW 4.6 mph - N/A   Mostly Cloudy
12:43 PM 79.2 °F - 56.5 °F 46% 30.12 in 10.0 mi South 9.2 mph 18.4 mph N/A   Mostly Cloudy
1:03 PM 79.7 °F - 55.8 °F 44% 30.11 in 10.0 mi SSW 6.9 mph - N/A   Overcast
1:23 PM 79.5 °F - 56.3 °F 45% 30.10 in 10.0 mi SSW 6.9 mph 19.6 mph N/A   Mostly Cloudy
1:43 PM 79.5 °F - 55.4 °F 43% 30.09 in 10.0 mi South 8.1 mph - N/A   Overcast
2:03 PM 79.0 °F - 54.7 °F 43% 30.07 in 10.0 mi South 6.9 mph 21.9 mph N/A   Overcast
2:23 PM 79.5 °F - 54.0 °F 41% 30.07 in 10.0 mi South 8.1 mph - N/A   Overcast
2:43 PM 81.0 °F 80.6 °F 54.3 °F 40% 30.07 in 10.0 mi SSW 8.1 mph 16.1 mph N/A   Scattered Clouds
3:03 PM 79.3 °F - 53.8 °F 41% 30.07 in 10.0 mi SSW 5.8 mph 16.1 mph N/A   Clear
3:23 PM 79.2 °F - 54.5 °F 42% 30.07 in 10.0 mi South 9.2 mph - N/A   Clear
3:43 PM 79.7 °F - 54.5 °F 42% 30.06 in 10.0 mi SSW 6.9 mph - N/A   Scattered Clouds
4:03 PM 79.0 °F - 54.5 °F 43% 30.05 in 10.0 mi SSW 6.9 mph - N/A   Clear
4:23 PM 80.4 °F 80.4 °F 55.0 °F 42% 30.04 in 10.0 mi South 5.8 mph - N/A   Clear
4:43 PM 79.0 °F - 55.4 °F 44% 30.04 in 10.0 mi South 6.9 mph - N/A   Mostly Cloudy
5:03 PM 79.0 °F - 55.0 °F 44% 30.04 in 10.0 mi SW 3.5 mph - N/A   Scattered Clouds
5:23 PM 79.0 °F - 55.4 °F 44% 30.03 in 10.0 mi South 3.5 mph - N/A   Clear
5:43 PM 78.8 °F - 55.6 °F 45% 30.03 in 10.0 mi Calm Calm - N/A   Clear
6:03 PM 77.9 °F - 55.4 °F 46% 30.03 in 10.0 mi Calm Calm - N/A   Clear
6:23 PM 77.9 °F - 55.6 °F 46% 30.04 in 10.0 mi Calm Calm - N/A   Clear
6:43 PM 74.1 °F - 57.2 °F 55% 30.04 in 10.0 mi Calm Calm - N/A   Scattered Clouds
7:03 PM 73.2 °F - 57.7 °F 58% 30.05 in 10.0 mi Calm Calm - N/A   Overcast
7:23 PM 73.4 °F - 57.6 °F 58% 30.05 in 10.0 mi Calm Calm - N/A   Overcast
7:43 PM 72.3 °F - 58.3 °F 61% 30.06 in 10.0 mi Calm Calm - N/A   Overcast
8:03 PM 72.1 °F - 58.5 °F 62% 30.06 in 10.0 mi Calm Calm - N/A   Overcast
8:23 PM 72.9 °F - 58.5 °F 60% 30.07 in 10.0 mi NNW 10.4 mph 16.1 mph N/A   Overcast
8:43 PM 67.6 °F - 57.2 °F 69% 30.10 in 10.0 mi North 16.1 mph 25.3 mph N/A   Overcast
9:03 PM 63.9 °F - 54.9 °F 72% 30.12 in 10.0 mi North 15.0 mph 25.3 mph N/A   Overcast
9:23 PM 62.6 °F - 53.8 °F 73% 30.14 in 10.0 mi North 8.1 mph - N/A   Overcast
9:43 PM 62.6 °F - 53.6 °F 72% 30.16 in 10.0 mi North 9.2 mph 16.1 mph N/A   Overcast
10:03 PM 61.7 °F - 53.6 °F 75% 30.16 in 10.0 mi NNE 6.9 mph - N/A   Overcast
10:43 PM 61.7 °F - 52.9 °F 73% 30.17 in 10.0 mi NE 6.9 mph - N/A   Overcast
11:03 PM 61.7 °F - 52.2 °F 71% 30.17 in 10.0 mi NNE 6.9 mph 17.3 mph N/A   Overcast
11:23 PM 61.5 °F - 52.3 °F 72% 30.16 in 10.0 mi NE 4.6 mph - N/A   Overcast
11:43 PM 61.2 °F - 52.2 °F 72% 30.17 in 10.0 mi NNE 6.9 mph - N/A   Overcast